OV1-5 DEB, 5599

Orbit data source: Space-Track

OV1-5 DEB, 5599 is space debris in LEO originally from a launch on Wed, 30 Mar 1966 UTC launched from the Air Force Western Test Range (AFWTR). Debris objects in space refer to the collection of defunct objects orbiting the Earth. Examples of debris include non-operational satellites, rocket bodies, and fragments generated from explosions, collisions, or faulty payload assembly.

Loading next visibility...
Identifier
5599, 1966-025G
Orbit
LEO
Country
Flag of USUS
Related business
Flag of USAir Force Systems Command (OAR legacy assets) (US)
Manufacturer
Unknown
Mission
Spacecraft
Bus & Motor
Unknown
Mass
Unknown
Launch date (UTC)
1966-03-30 (59 years ago)
Launch vehicle
Unknown
Launch site
Air Force Western Test Range (AFWTR)
Object type
Payload
Rocket body
Debris
Shape & HBR
Unknown
Radar Cross Section
Small (<0.1 m²)

Expand to show TLE details & history
Last TLE update: 4 days ago

TLE from 4 days ago
0 OV1-5 DEB
1 05599U 66025G   25238.87071845  .00029572  00000-0  40647-2 0  9995
2 05599 144.6167 236.6106 0030807 297.0725  62.6842 14.76325332 60700
Epoch: 2025-08-26T20:53Z
TLE epoch observation values (Epoch: 2025-08-26T20:53:50.074Z)
Latitude
-0.00002°
Longitude
-52.20423°
Altitude
630.048 km
Speed
7.551 km/s
True Right ascension
15h 46m 26s
True Declination
0° 00' 00"
Sunlit
Object was in daylight at epoch
Visualization orbit readout
Latitude
Unknown
Longitude
Unknown
Altitude
Unknown
Speed
Unknown
Apparent Right ascension
Unknown
Apparent Declination
Unknown
Sunlit
N/A
Visualization observer readout
Local Sidereal Time
22:24:16
Azimuth
Unknown
Elevation
Unknown
Doppler factor
Unknown
Orbital elements
Apogee altitude
665.705 km
Perigee altitude
622.438 km
Semi-major axis
7,022.209 km
Eccentricity
0.00308
Inclination
144.6167°
RAAN
236.6106°
Arg. of periapsis
297.0725°
True anomaly
62.99841°
Mean anomaly
62.6842°
Eccentric anomaly
62.84125°
Mean motion
3.68835 °/min
Orbital period
97.6 mins
BSTAR
0.0040647
Loading maneuver chart data...
Computing Atmospheric mass density...
Loading historical data...
Loading historical data...
Loading historical data...
Loading historical data...
Loading historical data...
Loading historical data...
Loading historical data...

Documentation

Showing up to 5 results
|